Weather History for KMQB - January, 2012

Change the Weather History Date:

Friday, January 20, 2012

  Actual Average (KBRL) Record (KBRL)
Temperature  
Mean Temperature 16 °F 26 °F  
Max Temperature 24 °F 35 °F 65 °F (1906)
Min Temperature 7 °F 17 °F -22 °F (1985)
Degree Days  
Heating Degree Days 50 39  
Month to date heating degree days 780  
Since 1 July heating degree days 2966  
Cooling Degree Days 0 0  
Month to date cooling degree days 0  
Year to date cooling degree days 0  
Moisture  
Dew Point 5 °F    
Average Humidity 63    
Maximum Humidity 85    
Minimum Humidity 53    
Precipitation  
Precipitation 0.00 in 0.04 in 0.40 in (1954)
Month to date precipitation 0.82  
Year to date precipitation 0.82  
Sea Level Pressure  
Sea Level Pressure 30.09 in    
Wind  
Wind Speed 12 mph (East)    
Max Wind Speed 17 mph    
Max Gust Speed -    
Visibility 10 miles    
Events Snow    
T = Trace of Precipitation, MM = Missing Value Source: NWS Daily Summary

Daily Weather History Graph

Daily Weather History Graph

Search for Another Location

Airport or City:

Trip Planner

Search our weather history database for the weather conditions in past years. The results will help you decide how hot, cold, wet, or windy it might be!

Date:

Astronomy

Jan. 20, 2012 Rise Set
Actual Time 7:21 AM CST 5:05 PM CST
Civil Twilight 6:52 AM CST 5:35 PM CST
Nautical Twilight 6:18 AM CST 6:08 PM CST
Astronomical Twilight 5:46 AM CST 6:41 PM CST
Moon 4:59 AM CST (1/20) 2:37 PM CST (1/20)
Length of Visible Light 10h 43m
Length of Day
9h 43m
Waning Crescent, 8% of the Moon is Illuminated
Jan 20
Waning Crescent
Jan 23
New
Jan 30
First Quarter
Feb 7
Full
Feb 14
Last Quarter

Hourly Weather History & Observations

Time (CST) Temp. Windchill Dew Point Humidity Pressure Visibility Wind Dir Wind Speed Gust Speed Precip Events Conditions
12:15 AM 8.1 °F -5.3 °F 0.3 °F 71% 30.20 in 10.0 mi NE 9.2 mph - N/A   Clear
12:35 AM 7.7 °F -4.8 °F 0.3 °F 72% 30.19 in 10.0 mi ENE 8.1 mph - N/A   Clear
12:55 AM 7.7 °F -4.8 °F 0.9 °F 74% 30.20 in 10.0 mi ENE 8.1 mph - N/A   Clear
1:15 AM 8.2 °F -5.1 °F 1.4 °F 74% 30.20 in 10.0 mi ENE 9.2 mph - N/A   Clear
1:35 AM 8.6 °F -1.3 °F 1.0 °F 71% 30.22 in 10.0 mi East 5.8 mph - N/A   Clear
1:55 AM 9.5 °F -2.6 °F -0.2 °F 65% 30.21 in 10.0 mi East 8.1 mph - N/A   Mostly Cloudy
2:15 AM 9.9 °F -4.7 °F -0.9 °F 62% 30.21 in 10.0 mi ENE 11.5 mph - N/A   Overcast
2:35 AM 10.0 °F -3.7 °F -0.9 °F 61% 30.22 in 10.0 mi ENE 10.4 mph - N/A   Overcast
2:55 AM 10.4 °F -3.3 °F -0.6 °F 61% 30.21 in 10.0 mi East 10.4 mph - N/A   Overcast
3:15 AM 10.4 °F -2.4 °F -0.4 °F 62% 30.21 in 10.0 mi ENE 9.2 mph - N/A   Overcast
3:35 AM 10.4 °F -4.1 °F -1.5 °F 59% 30.20 in 10.0 mi ENE 11.5 mph - N/A   Overcast
3:55 AM 10.4 °F -4.8 °F -2.2 °F 57% 30.17 in 10.0 mi East 12.7 mph - N/A   Overcast
4:15 AM 11.1 °F -2.4 °F -0.2 °F 60% 30.17 in 10.0 mi East 10.4 mph - N/A   Overcast
4:35 AM 11.1 °F -3.9 °F 0.1 °F 61% 30.16 in 10.0 mi East 12.7 mph - N/A   Overcast
4:55 AM 11.3 °F -4.9 °F 0.3 °F 61% 30.14 in 10.0 mi East 15.0 mph - N/A   Scattered Clouds
5:15 AM 11.3 °F -3.6 °F 0.7 °F 62% 30.14 in 10.0 mi East 12.7 mph - N/A   Scattered Clouds
5:35 AM 11.8 °F -3.6 °F 0.9 °F 61% 30.14 in 10.0 mi East 13.8 mph - N/A   Overcast
5:55 AM 12.0 °F -4.5 °F 0.9 °F 61% 30.13 in 10.0 mi East 16.1 mph - N/A   Overcast
6:15 AM 12.0 °F -5.1 °F 0.7 °F 60% 30.12 in 10.0 mi East 17.3 mph - N/A   Overcast
6:35 AM 12.2 °F -3.1 °F 0.9 °F 60% 30.11 in 10.0 mi East 13.8 mph - N/A   Overcast
6:55 AM 12.6 °F -2.0 °F 0.5 °F 59% 30.11 in 10.0 mi East 12.7 mph - N/A   Overcast
7:15 AM 12.7 °F -1.8 °F 1.2 °F 60% 30.12 in 10.0 mi East 12.7 mph - N/A   Overcast
7:35 AM 13.1 °F -3.1 °F 1.4 °F 60% 30.11 in 10.0 mi ESE 16.1 mph - N/A   Overcast
7:55 AM 14.0 °F -0.8 °F 1.4 °F 57% 30.09 in 10.0 mi East 13.8 mph - N/A   Overcast
8:15 AM 14.0 °F 2.0 °F 2.1 °F 59% 30.13 in 10.0 mi ESE 9.2 mph - N/A   Overcast
8:35 AM 14.5 °F 0.5 °F 2.8 °F 60% 30.13 in 10.0 mi ESE 12.7 mph - N/A   Mostly Cloudy
8:55 AM 14.9 °F 0.9 °F 3.6 °F 61% 30.12 in 10.0 mi East 12.7 mph - N/A   Overcast
9:15 AM 15.8 °F 0.9 °F 4.8 °F 62% 30.11 in 10.0 mi East 15.0 mph - N/A   Overcast
9:35 AM 16.5 °F 3.0 °F 5.0 °F 61% 30.11 in 10.0 mi East 12.7 mph - N/A   Overcast
9:55 AM 17.1 °F 2.5 °F 6.3 °F 63% 30.09 in 10.0 mi East 15.0 mph - N/A   Overcast
10:15 AM 17.4 °F 2.9 °F 6.4 °F 62% 30.09 in 10.0 mi East 15.0 mph - N/A   Overcast
10:35 AM 18.5 °F 6.1 °F 6.8 °F 60% 30.09 in 10.0 mi East 11.5 mph - N/A   Overcast
10:55 AM 18.7 °F 5.1 °F 7.2 °F 61% 30.08 in 10.0 mi East 13.8 mph - N/A   Overcast
11:15 AM 19.4 °F 6.6 °F 7.7 °F 60% 30.07 in 10.0 mi East 12.7 mph - N/A   Overcast
11:35 AM 20.3 °F 7.2 °F 7.3 °F 57% 30.05 in 10.0 mi ESE 13.8 mph - N/A   Overcast
11:55 AM 21.0 °F 8.6 °F 8.2 °F 58% 30.04 in 10.0 mi ESE 12.7 mph - N/A   Overcast
12:15 PM 21.0 °F 9.3 °F 7.3 °F 56% 30.03 in 10.0 mi ESE 11.5 mph - N/A   Overcast
12:35 PM 21.2 °F 8.3 °F 7.7 °F 56% 30.03 in 10.0 mi East 13.8 mph - N/A   Overcast
12:55 PM 21.2 °F 8.3 °F 8.6 °F 58% 30.00 in 10.0 mi East 13.8 mph - N/A   Overcast
1:15 PM 22.1 °F 8.5 °F 8.4 °F 56% 29.99 in 10.0 mi East 16.1 mph - N/A   Overcast
1:35 PM 22.8 °F 10.4 °F 8.2 °F 54% 29.98 in 10.0 mi East 13.8 mph - N/A   Overcast
1:55 PM 23.0 °F 10.1 °F 8.2 °F 53% 29.96 in 10.0 mi East 15.0 mph - N/A   Overcast
2:15 PM 23.4 °F 10.6 °F 8.6 °F 53% 29.96 in 10.0 mi East 15.0 mph - N/A   Overcast
2:35 PM 23.7 °F 12.1 °F 8.6 °F 53% 29.96 in 10.0 mi ENE 12.7 mph - N/A   Overcast
2:55 PM 24.1 °F 12.5 °F 9.0 °F 53% 29.95 in 10.0 mi ENE 12.7 mph - N/A   Overcast
3:15 PM 24.8 °F 11.5 °F 10.4 °F 54% 29.94 in 10.0 mi ENE 17.3 mph - N/A   Overcast
3:35 PM 23.5 °F 9.9 °F 10.8 °F 58% 29.95 in 10.0 mi ENE 17.3 mph - N/A   Overcast
3:55 PM 22.8 °F 9.4 °F 11.5 °F 62% 29.95 in 10.0 mi NE 16.1 mph - N/A   Overcast
4:15 PM 22.5 °F 8.5 °F 12.7 °F 66% 29.96 in 10.0 mi NE 17.3 mph - N/A   Overcast
4:35 PM 21.6 °F 7.8 °F 13.3 °F 70% 29.96 in 5.0 mi ENE 16.1 mph - N/A Snow Light Snow
4:55 PM 21.2 °F 7.8 °F 14.4 °F 75% 29.97 in 5.0 mi ENE 15.0 mph - N/A Snow Light Snow
5:15 PM 20.7 °F 8.2 °F 15.3 °F 80% 29.99 in 7.0 mi NE 12.7 mph - N/A Snow Light Snow
5:35 PM 20.3 °F 8.3 °F 15.8 °F 83% 30.00 in 10.0 mi NE 11.5 mph - N/A   Overcast
5:55 PM 19.9 °F 6.7 °F 15.8 °F 84% 30.02 in 10.0 mi NE 13.8 mph - N/A   Overcast
6:15 PM 19.9 °F 5.7 °F 16.0 °F 85% 30.02 in 10.0 mi NE 16.1 mph - N/A   Overcast
6:35 PM 19.8 °F 5.9 °F 15.8 °F 85% 30.03 in 10.0 mi NE 15.0 mph - N/A   Overcast
6:55 PM 19.8 °F 6.5 °F 15.8 °F 85% 30.03 in 10.0 mi ENE 13.8 mph - N/A   Overcast
7:15 PM 19.8 °F 6.5 °F 15.6 °F 84% 30.05 in 10.0 mi NE 13.8 mph 18.4 mph N/A   Overcast
7:35 PM 19.8 °F 7.1 °F 15.8 °F 85% 30.05 in 10.0 mi NE 12.7 mph - N/A   Overcast
7:55 PM 19.6 °F 6.8 °F 16.7 °F 89% 30.06 in 10.0 mi NNE 12.7 mph - N/A   Overcast
8:15 PM 19.2 °F 6.4 °F 16.7 °F 90% 30.07 in 5.0 mi NNE 12.7 mph - N/A   Overcast
8:35 PM 19.0 °F 6.1 °F 16.7 °F 91% 30.07 in 7.0 mi NE 12.7 mph - N/A   Overcast
8:55 PM 19.0 °F 7.5 °F 17.1 °F 92% 30.08 in 7.0 mi NE 10.4 mph - N/A   Overcast
9:15 PM 19.0 °F 8.2 °F 17.2 °F 93% 30.08 in 10.0 mi NE 9.2 mph - N/A   Overcast
9:35 PM 19.2 °F 7.0 °F 17.4 °F 93% 30.08 in 10.0 mi NE 11.5 mph - N/A   Overcast
9:55 PM 19.4 °F 7.9 °F 17.6 °F 93% 30.08 in 7.0 mi NNE 10.4 mph - N/A   Overcast
10:15 PM 19.4 °F 8.6 °F 17.6 °F 93% 30.08 in 10.0 mi NE 9.2 mph - N/A   Overcast
10:35 PM 19.9 °F 11.1 °F 18.1 °F 93% 30.09 in 10.0 mi NNE 6.9 mph - N/A   Overcast
10:55 PM 19.8 °F 9.9 °F 18.0 °F 93% 30.09 in 7.0 mi North 8.1 mph - N/A   Overcast
11:15 PM 19.8 °F 8.3 °F 18.3 °F 94% 30.10 in 5.0 mi North 10.4 mph - N/A   Overcast
11:35 PM 19.9 °F 7.9 °F 18.5 °F 94% 30.10 in 7.0 mi North 11.5 mph - N/A   Overcast
11:55 PM 21.2 °F 8.9 °F 19.4 °F 93% 30.10 in 5.0 mi North 12.7 mph - N/A   Overcast